Location: Unspecified
(0.0000°N, 0.0000°E)
Time: 18:50:45
(UTC+00:00)

SR - Pass Details

Date: 31 July 2021
Orbit: 581 x 874 km, 66.7° (Epoch: 26 September)

Event Time Altitude Azimuth Distance (km) Brightness Sun altitude
Exits shadow 04:24:46 18° 180° (S) 1,975 ? -24.1°
Maximum altitude 04:28:56 52° 109° (ESE) 1,071 ? -23.1°
Drops below altitude 10° 04:34:36 10° 34° (NE) 2,508 ? -21.7°
Sets 04:37:08 0° 30° (NNE) 3,432 ? -21.2°
